Probability
0 0 0 0 0 0 0 0 0 3 10 16 16 16 19 29 32 29 23 26 26 23 23 23 26 26 23 26 32 35 35 32 32 35 35 32 35 32 32 26 26 26 23 23
0 0 0 0 0 0 3 3 0 0 10 13 13 16 26 35 42 42 26 29 26 26 26 23 23 23 26 26 32 32 32 39 35 32 32 35 32 32 29 29 26 23 26 23
0 0 0 0 0 3 3 3 3 6 10 6 16 26 35 39 42 39 29 26 26 26 26 26 26 23 23 26 26 29 32 32 32 32 32 29 29 29 32 32 26 29 26 26
0 0 0 0 0 3 3 3 6 6 10 19 23 26 32 35 39 32 26 26 26 26 26 23 26 29 23 29 26 29 32 26 26 29 29 29 29 29 29 23 23 23 23 19
0 0 0 0 0 3 6 10 6 16 16 23 23 26 32 29 29 29 23 23 19 19 23 26 26 26 26 26 29 29 29 23 23 26 29 29 29 26 23 19 23 19 23 23
0 0 0 0 0 3 6 13 16 16 16 26 29 26 26 29 19 19 19 16 23 26 26 26 26 23 23 23 26 26 29 26 23 19 26 26 23 23 23 23 19 26 23 23
0 0 0 0 0 3 6 13 10 23 23 29 29 29 23 23 19 16 16 23 23 23 26 29 23 23 23 23 26 29 29 23 23 23 13 16 23 26 19 26 26 23 23 19
0 0 0 0 10 6 0 3 10 13 19 19 19 19 23 16 16 13 13 16 19 23 23 23 26 26 19 23 23 26 29 26 23 19 16 16 19 19 19 19 19 16 10 10
0 0 0 3 3 3 3 3 10 10 13 19 23 23 19 10 10 10 6 10 19 23 23 23 23 23 19 16 19 23 23 19 19 13 13 13 10 10 6 3 10 6 6 10
3 3 3 3 3 6 6 10 16 16 16 19 19 13 10 10 6 10 10 10 13 13 16 13 13 13 13 16 16 19 19 19 16 6 6 3 3 0 0 0 3 0 0 0
3 3 3 3 6 6 10 10 16 19 13 10 10 13 10 6 3 3 3 10 10 10 13 10 13 10 10 10 13 16 16 16 10 6 6 3 3 0 0 0 0 0 0 0
0 0 3 3 10 10 6 10 10 10 6 10 10 10 6 6 3 3 3 3 0 6 3 6 6 10 10 10 10 16 16 16 6 6 6 6 3 3 0 0 0 0 0 0
0 0 0 0 6 6 6 3 3 3 6 6 6 0 0 0 0 0 0 0 0 0 0 0 3 3 10 10 10 13 13 6 6 6 10 6 6 3 3 0 0 0 0 0
0 0 0 3 3 3 6 3 3 6 3 3 0 0 0 0 0 0 0 0 0 0 0 0 0 0 0 10 10 13 6 6 3 3 3 6 6 6 6 0 0 0 0 0
0 0 0 0 3 3 3 3 6 3 0 0 0 0 0 0 0 0 0 0 0 0 0 0 0 0 0 3 3 6 6 6 3 3 3 3 6 6 3 6 0 0 0 0
0 0 3 0 0 3 3 3 0 0 0 0 0 0 0 0 0 0 0 0 0 0 0 0 0 0 0 0 0 0 3 3 3 3 3 3 6 6 3 0 0 0 0 0
0 0 0 0 0 0 3 3 0 0 0 0 0 0 0 0 0 0 0 0 0 0 0 0 0 0 0 0 0 0 0 3 3 3 3 3 6 6 3 0 0 0 0 0
0 0 0 0 0 0 0 0 0 0 0 0 0 0 0 0 0 0 0 0 0 0 0 0 0 0 3 0 0 0 0 0 0 0 0 0 3 3 3 3 0 0 0 0
0 0 0 0 0 0 0 0 0 0 0 0 0 0 0 0 0 0 0 0 0 0 0 0 0 3 0 0 0 0 0 0 0 0 0 0 0 3 3 3 3 0 0 0
0 0 0 0 0 0 0 0 0 0 0 0 0 0 0 0 0 0 0 0 0 0 0 0 0 0 0 0 0 0 0 0 0 0 0 0 0 0 3 3 3 3 0 0
0 0 0 0 0 0 0 0 0 0 0 0 0 0 0 0 0 0 0 0 0 0 0 0 0 0 0 0 0 0 0 0 0 0 0 0 0 0 3 3 3 3 0 0
0 0 0 0 0 0 0 0 0 0 0 0 0 0 0 0 0 0 0 0 0 0 0 0 0 0 0 0 0 0 0 0 0 0 0 0 0 0 0 0 0 0 0 0
0 0 0 0 0 0 0 0 0 0 0 0 0 0 0 0 0 0 0 0 0 0 0 0 0 0 0 0 0 0 0 0 0 0 0 0 0 0 0 0 0 0 0 0
0 0 0 0 0 0 0 0 0 0 0 0 0 0 0 0 0 0 0 0 0 0 0 0 0 0 0 0 0 0 0 0 0 0 0 0 0 0 0 0 0 0 0 0
0 0 0 0 0 0 0 0 0 0 0 0 0 0 0 0 0 0 0 0 0 0 0 0 0 0 0 0 0 0 0 0 0 0 0 0 0 0 0 0 0 0 0 0
0 0 0 0 0 0 0 0 0 0 0 0 0 0 0 0 0 0 0 0 0 0 0 0 0 0 0 0 0 0 0 0 0 0 0 0 0 0 0 0 0 0 0 0
0 0 0 0 0 0 0 0 0 0 0 0 0 0 0 0 0 0 0 0 0 0 0 0 0 0 0 0 0 0 0 0 0 0 0 0 0 0 0 0 0 0 0 0
Height
5866 5868 5869 5870 5872 5872 5872 5873 5873 5874 5874 5875 5875 5875 5875 5875 5875 5874 5874 5873 5872 5872 5871 5870 5869 5868 5867 5866 5865 5864 5863 5862 5860 5859 5858 5857 5856 5854 5853 5852 5850 5849 5847 5845
5858 5860 5861 5863 5865 5865 5866 5866 5866 5867 5867 5869 5869 5869 5868 5868 5868 5867 5867 5867 5866 5865 5864 5863 5862 5861 5860 5859 5858 5857 5856 5856 5855 5853 5852 5850 5849 5847 5846 5845 5843 5842 5840 5838
5851 5853 5853 5856 5858 5858 5858 5858 5859 5860 5862 5862 5862 5862 5862 5861 5861 5860 5860 5860 5859 5858 5858 5856 5855 5854 5852 5852 5851 5850 5849 5848 5847 5845 5844 5843 5841 5840 5839 5837 5836 5834 5832 5830
5843 5845 5846 5851 5851 5850 5850 5850 5852 5853 5853 5854 5855 5855 5855 5855 5854 5853 5853 5853 5852 5851 5850 5849 5848 5846 5845 5844 5843 5842 5841 5840 5838 5837 5836 5835 5833 5832 5831 5829 5827 5825 5824 5822
5834 5835 5837 5842 5842 5842 5842 5843 5845 5845 5845 5846 5847 5847 5847 5847 5846 5846 5846 5845 5844 5843 5843 5842 5840 5838 5836 5836 5835 5834 5833 5832 5830 5829 5828 5827 5825 5824 5822 5820 5818 5816 5815 5813
5825 5826 5829 5834 5834 5833 5835 5835 5837 5837 5838 5838 5839 5839 5840 5839 5839 5838 5838 5837 5836 5835 5835 5833 5832 5830 5828 5828 5826 5825 5824 5823 5822 5821 5820 5818 5816 5815 5813 5811 5809 5808 5805 5803
5816 5816 5819 5823 5825 5825 5826 5827 5828 5829 5830 5830 5830 5831 5831 5830 5830 5830 5829 5828 5827 5827 5826 5825 5823 5822 5820 5819 5818 5817 5816 5815 5814 5813 5811 5809 5808 5806 5804 5802 5801 5798 5796 5794
5806 5807 5811 5813 5814 5816 5816 5818 5819 5820 5820 5821 5821 5821 5821 5821 5821 5821 5820 5819 5819 5818 5817 5816 5814 5813 5812 5810 5809 5808 5807 5806 5805 5804 5802 5801 5799 5797 5795 5793 5791 5789 5787 5784
5797 5800 5801 5802 5804 5805 5806 5808 5809 5809 5810 5811 5811 5812 5812 5811 5811 5811 5811 5810 5810 5809 5808 5807 5805 5804 5803 5802 5800 5799 5798 5797 5796 5794 5793 5792 5790 5788 5786 5784 5782 5780 5778 5775
5787 5788 5791 5792 5793 5795 5795 5797 5798 5799 5800 5801 5801 5801 5801 5802 5802 5801 5801 5800 5800 5800 5799 5798 5797 5795 5794 5792 5791 5790 5788 5787 5786 5785 5784 5782 5781 5779 5777 5775 5773 5770 5768 5766
5777 5779 5781 5782 5783 5784 5785 5786 5787 5789 5790 5791 5791 5791 5791 5792 5791 5791 5790 5790 5790 5790 5789 5788 5787 5786 5785 5784 5782 5781 5780 5778 5777 5776 5774 5773 5771 5769 5767 5765 5763 5761 5759 5756
5769 5770 5772 5773 5774 5775 5775 5777 5778 5779 5780 5781 5781 5781 5781 5781 5781 5781 5780 5780 5780 5780 5779 5779 5778 5777 5776 5775 5773 5772 5770 5769 5768 5766 5765 5763 5761 5759 5756 5754 5752 5750 5748 5746
5761 5762 5763 5764 5765 5765 5766 5767 5768 5769 5770 5770 5770 5771 5771 5771 5771 5770 5770 5769 5769 5769 5769 5768 5768 5767 5766 5765 5764 5763 5761 5760 5758 5756 5755 5753 5751 5749 5747 5744 5742 5740 5738 5736
5752 5753 5754 5755 5755 5756 5757 5757 5758 5759 5759 5760 5760 5761 5761 5761 5761 5760 5760 5759 5759 5758 5758 5758 5758 5757 5756 5754 5753 5752 5751 5750 5748 5747 5745 5743 5741 5739 5737 5735 5733 5731 5729 5727
5744 5745 5746 5746 5747 5747 5747 5748 5749 5749 5751 5751 5751 5750 5750 5751 5751 5750 5750 5749 5749 5748 5748 5748 5747 5746 5745 5744 5743 5742 5741 5740 5738 5737 5735 5733 5731 5729 5727 5725 5724 5722 5719 5718
5736 5737 5738 5738 5738 5739 5739 5740 5740 5740 5741 5741 5741 5741 5740 5741 5741 5740 5740 5739 5739 5738 5738 5737 5737 5736 5735 5734 5733 5733 5731 5730 5728 5727 5725 5723 5721 5720 5718 5716 5714 5712 5710 5708
5729 5730 5730 5731 5731 5731 5731 5731 5731 5731 5731 5731 5731 5731 5731 5731 5731 5731 5730 5730 5729 5729 5728 5728 5727 5726 5725 5724 5724 5723 5721 5720 5719 5717 5715 5713 5712 5710 5708 5707 5705 5703 5701 5699
5722 5722 5723 5723 5723 5723 5722 5723 5722 5722 5722 5721 5722 5722 5721 5721 5721 5721 5721 5720 5719 5719 5718 5718 5717 5716 5715 5714 5714 5713 5711 5710 5709 5707 5705 5704 5702 5701 5699 5698 5696 5694 5692 5689
5715 5715 5715 5716 5716 5716 5715 5715 5715 5714 5713 5713 5713 5712 5712 5712 5712 5711 5711 5710 5710 5710 5709 5708 5707 5707 5706 5704 5704 5703 5702 5700 5699 5697 5695 5694 5693 5692 5690 5688 5687 5685 5683 5681
5707 5708 5708 5709 5709 5708 5708 5707 5707 5706 5705 5705 5704 5704 5704 5703 5702 5702 5701 5701 5701 5701 5700 5699 5698 5697 5696 5695 5694 5693 5692 5690 5689 5688 5686 5685 5683 5682 5681 5679 5678 5676 5674 5672
5701 5702 5702 5702 5702 5702 5701 5701 5700 5699 5698 5698 5697 5696 5695 5695 5694 5693 5692 5692 5692 5691 5690 5689 5688 5688 5687 5685 5684 5683 5682 5680 5679 5678 5677 5675 5674 5672 5671 5670 5668 5667 5665 5663
5695 5695 5695 5696 5696 5695 5695 5694 5693 5692 5691 5690 5689 5689 5688 5687 5686 5684 5683 5683 5682 5681 5680 5680 5679 5678 5677 5676 5675 5673 5672 5671 5669 5668 5667 5666 5665 5663 5662 5660 5659 5657 5656 5655
5689 5689 5689 5689 5689 5689 5688 5687 5687 5686 5685 5684 5683 5682 5681 5679 5678 5677 5676 5675 5674 5673 5672 5671 5670 5669 5668 5667 5665 5664 5663 5661 5660 5659 5658 5657 5655 5654 5653 5652 5650 5648 5647 5646
5683 5683 5683 5683 5683 5682 5682 5681 5680 5679 5678 5677 5675 5674 5673 5672 5671 5669 5668 5667 5666 5665 5663 5662 5662 5661 5659 5658 5657 5656 5654 5653 5652 5650 5649 5648 5647 5646 5645 5643 5642 5641 5639 5638
5678 5678 5677 5677 5677 5676 5676 5675 5674 5673 5672 5670 5669 5668 5666 5665 5664 5662 5661 5660 5659 5657 5656 5655 5654 5652 5651 5650 5649 5648 5646 5645 5644 5643 5641 5640 5639 5638 5637 5636 5634 5633 5632 5630
5672 5672 5672 5671 5671 5670 5669 5668 5667 5666 5665 5664 5663 5661 5660 5658 5657 5655 5654 5653 5652 5651 5649 5647 5646 5644 5643 5642 5641 5640 5639 5638 5637 5635 5634 5633 5632 5631 5629 5628 5627 5626 5624 5623
5668 5668 5667 5666 5665 5664 5663 5662 5661 5660 5659 5658 5657 5655 5654 5652 5651 5649 5648 5646 5645 5644 5642 5640 5639 5637 5636 5635 5634 5633 5632 5630 5629 5628 5627 5626 5624 5623 5622 5620 5619 5618 5616 5615
Wind_Speed
28 28 27 26 25 24 26 26 27 27 26 25 25 25 24 25 25 24 23 22 21 21 22 22 22 22 22 23 23 22 21 21 22 21 22 22 22 22 22 22 22 23 23 23
29 29 30 29 28 28 27 27 28 28 28 27 26 27 28 28 28 27 26 25 24 24 24 24 24 24 25 24 25 25 24 23 24 24 24 24 24 25 25 25 25 25 26 26
31 29 30 29 29 30 29 28 28 29 29 29 29 29 29 29 29 28 28 27 26 25 26 27 26 26 26 26 27 27 27 26 26 26 26 27 26 26 26 27 27 27 28 28
32 31 33 29 28 29 30 29 29 30 30 29 29 30 30 30 29 29 29 30 28 27 28 28 27 27 28 28 29 29 28 28 27 27 27 28 28 28 28 29 29 29 30 31
33 33 32 30 29 30 30 31 29 30 30 30 30 30 30 30 31 31 31 31 31 29 29 30 30 30 29 29 30 29 29 29 27 27 28 29 30 30 30 30 30 31 31 32
35 36 35 31 31 32 33 33 32 32 32 32 32 33 32 32 33 32 32 32 31 30 30 31 31 31 31 30 30 29 29 29 29 29 30 30 30 31 31 32 32 32 32 32
35 37 37 34 33 33 34 34 32 33 33 33 34 35 35 34 34 33 33 34 33 31 31 31 32 32 32 31 31 30 30 30 30 30 29 30 31 31 31 32 32 32 32 32
36 37 37 35 34 34 35 34 34 34 34 34 35 35 35 36 36 35 35 34 33 32 32 32 33 33 33 33 32 32 31 30 30 30 30 30 31 31 31 32 32 32 32 32
37 38 37 35 36 36 35 35 34 34 33 34 35 37 37 37 36 36 35 35 34 33 33 34 34 34 34 33 33 32 31 31 30 31 31 31 31 31 31 32 32 33 33 33
37 37 37 36 35 36 35 35 35 34 34 34 35 36 36 35 35 35 35 35 35 34 34 34 35 35 33 32 31 32 31 30 31 31 32 32 32 32 32 33 33 34 33 33
38 37 37 36 36 36 37 36 34 33 33 34 35 35 35 35 36 36 36 36 35 35 34 34 33 34 33 33 32 32 31 31 31 32 31 32 33 33 34 34 34 34 33 33
36 36 36 35 35 35 35 35 34 33 34 35 36 36 36 36 36 36 36 35 34 34 34 34 33 34 34 34 33 33 32 32 32 32 32 33 34 34 35 34 33 33 33 33
34 35 35 35 35 35 35 36 36 34 34 35 35 35 35 36 36 36 36 35 35 35 35 34 34 34 34 34 33 33 33 32 32 32 32 33 33 33 33 32 32 32 32 31
31 32 32 33 33 34 35 35 34 35 33 33 34 34 34 34 35 36 36 35 35 36 36 35 34 34 34 33 33 33 33 32 32 32 33 33 33 33 32 31 31 31 30 30
29 30 31 31 32 32 32 33 33 33 33 32 32 34 34 33 33 33 34 34 35 35 35 35 35 34 34 33 32 33 33 33 32 32 33 34 33 33 32 31 31 31 31 30
28 28 29 30 31 31 31 31 32 32 33 33 33 33 33 33 33 33 34 33 33 33 33 34 34 34 33 33 33 33 33 33 33 33 33 33 33 33 32 31 31 31 31 30
27 27 28 28 29 31 32 33 33 32 31 31 32 32 32 32 33 33 33 32 32 32 32 32 33 34 34 33 33 33 34 34 34 33 33 32 32 32 32 31 31 30 30 30
26 26 27 28 28 29 30 31 31 31 31 31 31 30 30 30 31 33 33 33 32 31 31 32 32 32 32 32 32 32 33 33 33 33 32 31 31 31 31 31 30 30 30 29
24 24 24 25 26 26 27 28 28 28 30 30 31 30 29 29 30 30 31 30 30 30 30 31 31 30 31 31 32 32 32 31 32 31 31 30 30 30 30 30 30 30 30 29
23 24 23 23 24 24 25 26 26 26 27 28 29 29 28 28 28 29 30 29 29 30 30 30 30 31 31 31 31 31 31 30 30 30 30 30 30 30 30 30 29 29 29 29
22 23 23 22 23 23 23 23 24 24 24 25 26 26 26 27 27 28 28 29 29 28 28 28 29 30 30 30 30 30 30 30 30 31 31 31 30 30 30 29 29 29 29 28
19 20 21 22 22 22 22 22 22 22 23 23 23 24 25 25 25 26 26 27 28 28 28 28 28 28 29 29 30 30 30 30 30 29 29 29 28 28 28 29 28 28 28 28
17 18 19 20 20 21 21 21 21 21 22 23 23 23 24 24 25 25 26 26 27 27 28 27 28 28 28 28 27 27 28 28 28 27 27 27 27 27 27 27 26 26 26 26
17 17 18 19 20 21 21 21 21 21 22 22 22 23 23 24 24 24 24 24 24 25 25 25 26 26 26 26 26 26 26 25 25 24 24 24 25 25 25 25 24 24 24 25
16 17 17 18 18 19 20 21 22 22 22 22 22 21 21 21 21 22 21 21 21 22 21 21 22 23 23 23 23 22 22 22 22 22 22 23 23 23 23 23 24 24 24 24
15 15 16 16 17 18 18 19 19 20 20 20 20 20 20 20 21 21 21 21 21 21 21 21 21 21 21 21 21 21 21 21 21 22 22 23 23 23 23 24 24 24 24 24
14 14 15 16 16 17 18 18 18 19 19 18 18 18 19 19 19 20 20 20 20 21 21 21 21 21 20 20 20 20 20 20 21 22 22 22 23 23 23 23 23 23 23 22
Wind_Direction
242 239 238 239 243 247 249 250 255 258 259 262 267 271 272 274 278 281 286 289 290 289 290 290 290 289 289 287 286 284 284 285 286 286 287 286 285 284 285 285 286 286 287 289
246 244 242 242 245 247 248 250 255 256 256 260 265 267 270 274 278 279 284 285 287 286 287 288 287 283 283 284 285 286 285 285 285 287 287 286 285 284 285 286 286 285 285 286
249 248 246 245 245 246 248 250 254 254 256 258 260 264 270 274 274 277 282 283 282 285 286 285 285 284 283 283 284 285 285 284 284 285 286 286 286 286 286 286 286 287 286 286
254 252 249 249 248 248 249 250 253 255 256 257 262 265 268 271 272 276 280 282 282 284 286 284 285 285 283 283 284 284 284 283 283 285 287 285 286 287 287 287 287 286 286 286
253 253 253 249 248 249 251 252 253 257 258 259 260 264 268 272 275 278 280 280 280 283 283 282 284 286 286 282 281 281 282 282 283 284 286 286 285 286 286 286 287 287 286 286
254 254 253 250 248 249 252 253 254 256 258 259 260 263 267 271 276 277 278 278 279 281 282 282 284 284 286 284 281 279 280 282 283 282 284 285 285 285 286 286 288 288 287 287
253 255 255 253 251 251 253 256 257 258 259 261 261 263 267 271 274 277 278 279 280 282 281 281 282 283 283 285 282 280 280 281 281 282 283 286 286 286 287 286 287 290 289 288
254 254 255 256 256 254 256 257 258 260 260 260 262 265 268 271 273 277 278 279 279 281 282 282 282 283 284 285 283 282 280 280 281 282 283 285 286 286 286 286 288 290 291 288
254 255 257 259 259 258 258 257 258 259 260 261 262 265 267 270 272 275 277 277 277 279 280 281 281 283 284 282 280 281 280 281 281 282 283 284 285 285 286 286 286 287 288 288
253 255 258 260 261 258 257 257 257 258 260 263 265 265 266 270 272 275 276 276 276 277 279 279 280 281 282 281 281 282 282 282 280 282 283 284 285 285 285 286 286 287 287 287
254 257 258 260 261 259 258 259 259 260 261 264 267 267 269 271 273 275 276 275 275 276 277 278 278 279 279 279 280 283 283 283 283 282 283 283 284 284 284 284 285 285 286 286
255 257 258 259 260 261 262 261 261 262 263 264 265 268 270 271 274 275 274 274 275 275 276 277 278 277 278 279 280 283 284 283 282 283 283 284 284 284 284 284 285 285 286 286
255 257 258 259 260 260 260 261 262 263 264 265 266 268 269 270 272 274 274 273 273 273 273 275 276 277 277 278 280 281 283 283 283 283 283 285 285 287 286 286 287 287 287 286
255 256 258 259 259 259 259 259 262 263 266 267 268 269 270 271 273 274 273 272 274 274 273 274 276 277 278 280 281 281 283 283 283 284 284 286 287 288 287 287 288 288 287 286
255 255 256 257 258 259 259 260 266 267 265 268 269 270 271 273 274 275 274 272 273 274 274 276 277 278 279 280 282 283 284 284 283 284 284 285 286 286 286 286 287 288 289 288
254 256 256 258 259 259 262 263 268 271 269 268 268 270 271 273 274 274 274 273 274 274 275 276 277 278 277 279 281 282 283 284 284 284 284 284 285 286 286 286 287 288 287 287
254 256 258 260 261 263 264 266 268 268 268 267 268 268 270 272 272 272 274 273 274 274 274 276 277 278 279 280 280 281 282 283 283 284 284 285 286 286 286 286 286 287 287 287
257 259 261 261 262 263 266 268 269 270 270 269 270 270 270 272 272 272 272 273 273 273 274 276 277 279 279 279 279 280 281 282 284 285 284 285 286 285 284 285 286 286 287 287
258 263 264 262 263 265 267 269 271 272 271 271 272 272 273 272 272 272 272 271 272 273 274 276 278 278 279 280 280 280 281 283 285 285 285 284 284 284 284 286 286 287 287 286
260 262 264 266 268 270 270 271 272 273 274 275 274 273 274 274 273 273 273 272 272 273 275 276 277 279 279 279 280 281 282 284 285 285 285 284 284 285 286 286 287 286 286 285
266 265 266 268 271 274 274 274 273 274 275 276 276 275 276 277 275 275 275 273 273 275 276 277 279 280 280 281 282 282 282 283 284 283 283 284 284 284 285 285 286 286 285 284
270 269 268 269 271 273 275 276 277 278 279 279 279 279 278 279 279 278 276 276 276 277 279 279 280 280 280 281 282 281 281 282 282 282 283 283 283 283 284 285 285 285 284 283
270 270 269 270 272 273 275 278 280 281 281 281 281 281 282 282 281 280 280 279 278 278 278 278 279 280 280 281 281 280 280 280 280 281 281 282 282 282 283 284 284 284 284 284
270 270 272 274 275 274 275 278 280 282 283 282 283 283 284 284 283 283 283 283 283 280 279 279 280 280 281 280 279 280 281 282 282 282 281 281 282 283 283 283 284 284 284 285
272 272 272 275 278 278 278 279 281 282 283 282 283 283 283 283 282 283 284 285 285 284 284 283 282 282 281 280 280 280 281 282 282 282 282 282 282 284 284 283 284 284 283 285
276 277 277 278 279 282 284 285 286 285 285 285 285 285 285 284 284 285 285 283 283 284 283 284 286 284 282 280 280 280 281 282 282 283 282 281 283 284 284 282 281 282 283 284
279 280 281 283 283 285 287 288 288 287 286 286 286 288 289 287 287 287 287 286 286 287 286 286 286 284 281 281 281 282 283 283 284 283 282 282 283 284 284 283 282 284 284 284